Location: Bukit Lungun
(2.6833°N, 113.9667°E)
Time: 13:58:34
(UTC+00:00)

GPS 2-12 Rocket1 - Pass Details

Date: 02 March 2021
Orbit: 586 x 651 km, 20.0° (Epoch: 13 April)

Event Time Altitude Azimuth Distance (km) Brightness Sun altitude
Exits shadow 21:15:20 34° 219° (SW) 993 3.8 -20.4°
Maximum altitude 21:15:56 35° 201° (SSW) 962 3.9 -20.2°
Drops below altitude 10° 21:20:02 10° 135° (SE) 1,911 6.3 -19.2°
Sets 21:22:29 0° 126° (SE) 2,805 7.5 -18.6°
